Theta_e
313 317 320 316 316 318 318 319 320 317 315 314 314 313 312 313 313 314 315 317 319 320 322 325 325 325 324 323 323 324 323 322 322 320 318 316 315 315 314 312 313 310 309 308
312 313 313 315 315 317 318 319 319 317 314 314 314 314 314 313 312 313 314 315 315 316 316 317 321 323 323 323 322 321 321 320 320 319 317 315 315 315 313 311 312 310 309 308
313 313 313 313 313 314 314 317 317 317 315 312 311 311 311 311 313 314 314 314 314 315 316 316 315 315 317 318 320 320 319 318 317 317 316 315 314 313 313 312 311 311 308 308
311 311 312 313 314 312 314 312 314 316 313 315 311 314 312 310 309 310 313 314 315 315 315 315 315 315 315 315 314 313 313 313 314 316 316 314 314 314 313 312 311 311 308 308
312 312 313 314 314 312 314 311 312 313 312 313 312 311 313 309 311 311 311 313 314 314 314 315 315 316 315 315 314 313 313 313 314 316 316 315 314 314 312 311 310 310 308 307
310 310 311 312 311 312 310 311 308 308 308 307 310 311 312 312 313 312 311 313 313 313 314 315 314 313 314 314 314 314 313 313 314 315 315 315 314 314 312 311 310 309 308 307
311 311 309 311 312 310 310 310 308 306 307 309 310 311 311 310 309 309 309 312 313 313 313 314 314 314 314 313 314 314 313 313 314 314 314 314 313 312 312 310 309 308 308 307
313 312 311 310 312 312 311 311 309 309 311 311 310 311 310 309 309 309 308 309 311 312 312 312 314 314 314 313 313 313 313 313 313 313 313 313 312 312 311 310 309 308 308 307
311 312 307 308 309 311 311 312 309 311 303 309 309 307 305 306 308 306 307 309 310 310 310 311 313 314 314 314 314 313 313 313 312 312 312 312 311 311 310 310 309 309 307 307
306 308 306 307 309 308 310 308 311 308 307 310 309 308 308 307 306 304 306 307 308 308 308 310 312 313 313 313 313 313 313 312 312 311 310 310 310 310 310 308 308 308 307 306
306 306 306 309 309 309 309 310 308 309 309 312 310 307 304 307 308 305 305 307 308 310 311 311 311 312 312 311 311 312 312 312 311 310 310 309 309 309 308 308 307 307 307 306
305 305 306 306 306 305 307 309 308 310 310 308 309 310 305 305 304 304 307 308 309 309 309 310 310 311 311 310 311 311 311 311 311 310 309 309 308 307 307 307 307 306 306 305
304 299 298 301 302 303 305 305 308 308 307 311 310 309 304 305 307 308 307 310 310 310 309 309 309 309 309 309 309 310 310 310 310 310 309 309 308 307 307 307 306 306 305 305
305 303 303 303 303 303 306 306 306 308 310 311 311 310 309 308 305 307 308 308 309 309 309 308 307 308 308 308 308 308 308 308 309 309 308 308 307 306 306 305 305 304 304 303
303 301 302 304 304 304 305 305 304 305 305 306 307 306 306 306 304 305 306 306 305 305 305 305 306 306 306 305 305 306 306 306 306 307 307 307 307 305 304 304 304 304 303 302
302 305 303 304 305 304 303 303 304 304 305 304 304 305 305 305 305 305 305 304 304 304 305 303 303 303 303 304 304 304 305 305 305 305 306 306 306 306 305 303 303 303 302 302
299 300 294 300 297 297 297 299 301 302 302 304 305 305 304 303 304 304 304 304 304 303 301 300 299 299 299 299 300 302 304 305 305 304 304 303 305 306 305 304 303 303 302 301
296 288 289 293 292 293 298 298 299 299 300 300 301 302 302 303 303 302 302 303 301 301 299 298 296 296 296 297 299 300 301 303 305 304 304 304 303 304 304 303 302 302 302 301
297 299 300 297 284 294 298 298 297 298 298 297 298 299 300 301 299 301 301 302 298 295 295 295 295 295 296 295 296 299 300 301 302 305 305 303 302 301 301 301 301 301 301 300
296 300 301 285 292 291 294 296 296 296 295 296 297 298 296 299 298 296 299 296 294 295 295 294 293 293 296 296 298 296 297 299 300 302 303 303 302 301 301 301 300 299 299 300
292 296 299 298 294 290 292 294 295 289 293 298 298 299 300 297 298 297 295 294 294 294 294 293 293 294 297 297 298 296 295 295 298 300 301 302 302 301 300 299 298 297 297 297
289 287 288 285 286 292 293 293 293 294 296 296 297 298 298 298 295 294 294 293 294 293 293 292 292 293 294 297 298 298 297 296 296 298 299 300 301 300 298 297 296 295 295 295
289 287 289 289 291 292 293 295 296 297 297 297 297 297 295 293 293 293 293 293 293 292 292 292 292 292 291 292 295 296 297 294 295 297 299 300 300 299 297 295 294 293 293 293
283 286 286 287 288 291 292 294 295 295 295 294 294 294 293 293 293 293 292 292 292 292 292 291 291 291 291 291 291 291 292 293 293 295 297 300 300 299 297 295 293 291 291 291
287 286 287 286 290 291 291 293 294 294 294 294 294 294 293 292 292 292 291 291 291 291 291 290 290 290 290 291 291 290 291 291 293 294 296 299 299 298 296 294 293 292 291 291
287 289 291 292 294 293 294 294 294 293 293 293 293 293 292 292 291 291 291 291 290 290 290 290 289 289 290 290 290 290 290 290 291 291 293 296 298 298 295 293 292 290 290 288
Wind_Speed
7 7 7 7 5 5 6 5 4 1 3 2 5 7 11 14 15 21 26 27 29 30 28 30 30 30 30 30 30 29 27 27 25 24 22 21 21 20 18 17 12 11 10 9
7 7 3 6 8 8 6 6 3 1 2 3 4 11 17 12 14 27 32 33 35 32 32 31 31 32 33 32 31 29 28 28 27 25 23 22 21 21 18 16 14 13 11 10
6 1 5 6 5 7 4 6 2 3 3 1 7 7 5 4 16 22 28 30 31 34 35 34 33 33 32 33 32 30 29 30 29 26 25 25 24 23 21 19 20 16 13 12
6 4 6 6 4 3 4 1 3 2 2 2 3 5 6 4 8 6 18 22 32 36 35 35 36 34 34 32 29 28 26 28 28 27 28 28 27 25 21 21 21 21 15 13
1 2 4 3 3 3 3 1 2 2 3 3 3 2 7 5 6 5 6 7 15 21 25 33 38 36 34 33 29 26 25 26 28 29 29 29 28 25 24 23 23 23 18 16
2 1 2 3 1 3 5 3 5 4 3 3 2 4 6 3 3 5 8 17 17 15 16 17 21 24 30 30 30 27 26 26 27 29 30 30 30 27 27 25 24 23 18 18
3 2 2 2 4 3 4 4 3 5 4 3 1 1 11 8 10 6 14 19 16 16 17 15 16 17 20 25 27 28 27 26 27 29 30 31 30 28 28 26 24 23 19 18
4 3 4 1 2 4 2 4 4 3 2 4 1 5 6 5 11 17 18 16 16 17 19 16 13 12 13 16 22 27 28 27 27 29 30 31 31 31 30 28 26 24 21 19
3 3 2 3 2 1 2 2 1 4 2 2 3 6 9 4 3 13 16 17 19 22 24 19 12 9 9 11 15 22 26 28 28 28 29 31 32 33 32 30 29 26 24 22
2 0 3 4 2 5 2 4 3 3 0 4 5 5 6 5 8 7 10 17 24 25 23 17 12 8 6 10 14 20 23 28 28 28 29 30 31 33 33 32 30 28 25 24
3 3 2 1 2 5 2 0 4 2 3 3 3 6 6 6 1 8 16 22 20 25 32 25 15 8 10 18 19 19 22 26 29 29 29 31 31 32 32 32 30 28 27 26
2 3 2 5 1 1 3 5 6 4 4 4 2 8 3 2 4 7 18 20 30 34 33 29 26 25 23 27 25 24 23 25 27 27 29 31 31 33 33 32 30 29 29 27
3 2 2 7 4 2 4 3 4 3 2 15 2 9 2 8 18 28 24 35 36 41 34 30 32 31 34 30 30 29 30 29 28 28 30 31 32 35 35 33 31 30 30 29
4 2 5 5 2 1 2 1 2 5 6 11 15 21 26 17 10 22 31 27 24 29 38 44 40 36 33 29 27 28 33 33 33 34 34 35 35 34 34 32 32 32 31 31
3 2 1 4 4 2 4 2 5 3 8 8 18 14 26 19 13 18 28 34 32 30 27 29 33 36 34 33 31 31 31 31 32 36 38 38 37 35 34 34 34 33 34 33
3 2 1 4 5 4 3 4 8 12 15 17 17 29 17 36 35 26 28 28 25 27 39 29 22 24 26 28 28 28 29 29 31 35 37 38 39 38 37 36 36 36 36 36
2 4 3 5 3 5 8 10 14 15 16 8 18 26 20 17 24 27 24 26 30 22 13 18 23 28 31 31 32 33 32 32 35 35 35 36 36 39 40 39 38 39 40 38
5 4 3 3 4 3 5 2 4 8 7 9 15 17 18 21 28 30 31 25 7 12 26 32 37 36 35 35 33 34 35 35 34 35 34 34 35 39 42 43 42 41 41 42
2 4 0 2 3 8 10 8 5 6 17 10 14 15 24 26 20 26 12 2 21 38 36 43 42 41 42 39 34 34 36 36 36 34 32 32 33 36 42 46 46 43 44 44
2 7 5 3 3 7 5 5 4 1 16 20 23 16 14 5 3 6 9 28 40 38 42 31 36 39 38 38 33 33 32 35 36 35 33 30 30 32 36 40 43 44 46 45
6 4 16 9 5 8 10 17 1 6 7 2 7 11 11 7 15 25 43 48 50 44 34 42 40 38 38 36 34 32 33 35 32 34 34 34 32 31 32 35 38 41 44 46
8 9 4 2 1 10 18 5 8 10 9 15 21 20 21 25 37 48 50 49 40 41 48 45 45 46 42 35 32 39 42 36 34 35 36 34 33 33 32 34 36 37 40 45
2 7 6 10 9 10 15 11 18 24 24 22 24 33 35 41 45 49 48 44 50 48 51 46 45 47 45 43 42 46 44 39 36 36 36 37 35 33 33 35 36 37 40 45
3 7 3 3 8 29 24 29 28 36 36 41 44 44 46 43 45 49 52 51 51 50 47 46 49 52 52 47 46 43 42 40 38 37 37 37 36 36 34 35 36 39 42 46
5 12 6 7 17 25 27 37 45 43 36 36 37 39 44 45 50 53 52 51 52 52 54 51 49 51 53 48 47 43 39 35 36 37 36 37 38 38 37 37 37 40 43 45
12 7 6 9 20 22 25 31 33 36 37 42 41 48 51 48 50 50 52 52 55 57 52 51 51 50 50 45 44 43 37 34 36 38 37 37 38 38 38 38 38 39 40 43
Wind_Direction
33 74 91 104 76 107 112 99 101 284 338 252 253 280 276 256 230 236 237 236 237 240 241 237 238 240 242 243 245 247 247 247 252 255 257 263 272 274 287 298 293 280 278 271
53 59 87 85 81 86 84 96 34 335 303 210 317 276 265 219 227 231 235 238 241 244 245 243 242 245 245 248 249 247 248 249 247 249 254 258 265 269 275 283 294 281 271 266
84 43 123 90 68 79 48 107 131 210 299 69 318 294 297 288 247 257 252 254 256 254 254 251 245 245 248 248 248 249 248 248 249 248 247 251 255 260 267 277 286 288 269 265
65 353 101 90 77 108 80 285 152 147 69 278 25 286 300 319 299 250 264 255 258 258 259 258 255 251 249 253 250 249 247 246 250 244 242 247 255 264 271 278 280 287 268 264
269 75 91 74 170 128 139 110 80 74 85 19 7 67 273 337 323 337 336 281 278 278 271 265 259 258 256 252 251 250 249 246 247 244 246 249 253 261 266 269 277 286 266 261
93 59 60 143 43 68 136 96 48 50 67 30 307 112 291 290 287 325 321 311 320 323 315 291 276 266 256 252 246 249 248 248 244 245 248 250 253 257 259 267 272 279 269 262
15 6 307 164 88 32 76 63 346 360 13 225 102 143 253 274 274 263 285 317 334 339 342 315 295 283 270 254 248 248 250 252 249 247 247 250 252 254 257 264 266 268 271 266
148 264 208 170 162 175 109 133 143 255 280 280 123 233 250 226 296 288 296 301 320 342 344 338 317 305 293 273 259 254 256 258 253 252 253 254 256 255 258 260 264 264 267 266
123 284 321 65 27 74 177 164 166 94 53 25 247 291 285 329 355 2 23 32 19 6 356 347 339 332 322 298 275 265 261 263 260 260 258 258 258 259 259 259 258 258 262 262
159 297 17 350 47 39 148 160 66 11 334 285 287 272 235 307 325 349 0 353 347 348 349 343 359 0 358 338 296 271 265 264 264 264 263 262 260 259 260 262 260 258 262 262
125 123 310 97 166 181 66 132 54 129 158 215 284 259 222 219 296 346 339 0 20 27 17 4 348 358 341 332 317 297 275 267 265 267 268 266 264 263 262 261 260 260 262 257
220 120 198 232 142 112 159 181 165 163 225 232 247 261 223 286 344 342 350 339 325 324 336 341 324 313 315 321 314 300 290 278 271 269 267 267 266 264 262 260 260 260 259 256
190 343 29 343 2 22 227 196 193 76 65 248 299 262 232 352 332 310 313 320 318 316 332 332 325 318 315 313 312 307 298 290 282 271 268 268 266 263 261 259 258 255 252 250
139 141 170 192 209 43 267 300 232 200 240 279 251 281 280 282 284 290 302 316 320 316 313 313 315 316 318 315 312 307 302 296 287 277 272 271 271 269 265 262 258 255 253 251
93 190 190 268 272 269 249 280 327 305 270 252 277 270 276 295 293 296 306 306 307 307 307 314 313 312 315 317 314 306 299 300 296 285 278 276 274 271 268 262 258 255 253 252
12 236 128 286 277 312 286 278 243 261 261 259 269 270 267 283 290 300 301 305 306 314 315 320 329 330 332 333 328 320 316 305 291 286 281 277 273 270 267 264 257 254 251 249
125 130 74 251 24 321 285 207 214 243 252 244 260 270 288 294 297 300 305 300 305 310 334 338 336 329 330 331 331 328 323 316 307 292 287 277 270 268 265 263 257 252 250 250
127 95 102 263 32 272 245 184 232 241 239 234 262 274 281 281 286 297 298 299 300 324 323 323 322 319 320 317 316 315 316 318 317 310 293 287 276 267 262 258 256 253 250 248
172 119 51 258 212 307 303 273 204 203 275 246 256 270 272 286 304 297 309 200 328 322 320 318 315 311 307 307 309 303 305 310 312 315 311 297 287 277 269 261 257 254 250 248
198 227 199 90 199 233 262 228 176 150 282 227 242 256 273 283 298 278 287 307 321 316 318 313 314 308 303 296 301 300 300 299 304 312 308 302 291 282 276 271 263 256 252 251
146 205 214 211 238 279 240 244 309 115 251 196 234 251 238 213 259 299 307 311 315 313 309 316 313 307 306 299 293 297 312 304 300 300 303 301 294 287 280 274 266 258 252 250
159 153 183 111 172 275 208 135 177 219 251 271 275 280 287 289 300 303 303 307 312 313 311 313 310 303 300 303 291 293 302 312 307 300 297 297 296 291 282 273 267 259 252 246
189 182 177 181 211 234 190 216 227 250 263 271 284 293 295 299 298 300 302 306 310 309 309 310 309 307 303 298 288 291 295 301 301 299 297 299 298 291 283 273 264 256 250 246
272 181 200 75 235 247 246 258 262 271 274 283 290 292 297 296 298 298 300 302 301 301 303 307 305 302 301 301 298 293 292 294 294 292 292 294 293 290 281 272 264 256 250 245
176 153 201 257 274 277 273 267 272 279 284 284 285 288 291 293 294 295 297 299 300 302 304 304 300 300 299 302 299 297 292 294 290 288 289 289 291 287 280 272 265 261 258 253
187 178 187 235 248 246 262 268 276 277 279 284 287 291 293 292 293 297 297 299 300 300 302 300 299 298 298 301 298 296 295 289 285 286 286 287 289 286 279 272 267 262 260 257